7 * 24
多渠道服务支持
JILIN-01 GAOFEN 3B(吉林一号高分3B)是中国于2020年9月15日发射的商用高分辨率光学遥感卫星,隶属于吉林一号卫星星座。它依托长光卫星自研技术,具备高分辨率对地观测能力,可提供精准遥感数据,服务于国土资源监测、测绘、智慧城市建设、农业估产、防灾减灾等多个领域,推动了中国商业遥感航天的产业化发展,是吉林一号星座组网进程中的重要组成部分。
中国
(CN)
| 数据来源 | 国际轨道数据 |
| 星历时间: | 2026-04-27T08:16:13+0800 轨道信息已过期137天 |
| 半长轴: | 6518.06km |
| 偏心率: | 0.0011164 |
| 轨道倾角: | 97.200° |
| 近地点辐角 | 251.762° |
| 升交点赤经 | 178.019° |
| 平近点角 | 108.247° |
| 近地点: | 132.646km |
| 远地点: | 147.2km |
| 周期: | 87.285分钟 |
| 每日圈数: | 16.497771 |